Location: Anuling
(14.1239°N, 120.8922°E)
Time: 04:21:14
(UTC+00:00)

Resurs 01 Rocket - Pass Details

Date: 14 January 2026
Orbit: 627 x 635 km, 97.7° (Epoch: 11 February)

Event Time Altitude Azimuth Distance (km) Brightness Sun altitude
Rises 11:12:48 0° 166° (SSE) 2,905 5.1 -20.5°
Reaches altitude 10° 11:14:59 10° 165° (SSE) 1,998 4.2 -21.0°
Maximum altitude 11:19:20 81° 79° (ENE) 638 1.4 -22.0°
Enters shadow 11:23:18 12° 352° (N) 1,841 3.9 -22.9°
